Regional Weather Roundup
Issued by NWS

Home | Current Version | Previous Version | Text Only | Print | Product List | Glossary On
Versions: 1 2 3 4 5 6 7 8 9 10 11 12 13 14 15 16 17 18 19 20 21 22 23 24 25 26 27 28 29 30 31 32 33 34 35 36 37 38 39 40 41 42 43 44 45 46 47 48 49 50
245
ASUS43 KFSD 230602
RWRSD

WEATHER ROUNDUP FOR SOUTH DAKOTA
NATIONAL WEATHER SERVICE SIOUX FALLS SD
100 AM CDT WED AUG 23 2017

NOTE: "FAIR" INDICATES FEW OR NO CLOUDS BELOW 12,000 FEET WITH NO
SIGNIFICANT WEATHER AND/OR OBSTRUCTIONS TO VISIBILITY.


SDZ001>005-009-010-012>017-230700-
NORTHWEST AND NORTH CENTRAL SOUTH DAKOTA

CITY           SKY/WX    TMP DP  RH WIND       PRES   REMARKS
BUFFALO          N/A     58  46  64 NE7       30.06S
FAITH            N/A     63  49  60 SE14      30.11F
MOBRIDGE       CLEAR     57  48  72 S7        30.11F
$$

SDZ012>016-024>037-041>051-057-063-072>074-230700-
SOUTHWEST AND SOUTH CENTRAL SOUTH DAKOTA

CITY           SKY/WX    TMP DP  RH WIND       PRES   REMARKS
RAPID CTY ARPT CLEAR     61  46  57 SE6       30.08F
PIERRE         CLEAR     58  49  72 E7        30.11F
CUSTER         CLEAR     56  46  69 W5        30.22F
ELLSWORTH AFB  CLEAR     62  46  56 SE9       30.08F
PHILIP         CLEAR     59  50  72 E9        30.08F
PINE RIDGE     CLEAR     71  50  47 S16G31    30.10F
SPEARFISH      FAIR      63  45  51 NW6       30.11F
WINNER         FAIR      61  54  77 SE9       30.13F
$$

SDZ004>011-016>023-039-040-230700-
NORTHEAST SOUTH DAKOTA

CITY           SKY/WX    TMP DP  RH WIND       PRES   REMARKS
ABERDEEN       CLEAR     49  48  97 CALM      30.13S
WATERTOWN      CLEAR     54  50  86 CALM      30.14S
BROOKINGS      CLEAR     56  52  86 E3        30.15F
SISSETON         N/A     52  47  83 W3        30.10S
$$

SDZ017-020-022-023-036>040-048>070-230700-
SOUTHEAST SOUTH DAKOTA

CITY           SKY/WX    TMP DP  RH WIND       PRES   REMARKS
SIOUX FALLS    CLEAR     56  54  93 CALM      30.15F
HURON          CLEAR     54  53  97 CALM      30.14S
CHAMBERLAIN    CLEAR     59  53  80 E6        30.14F
MITCHELL       CLEAR     55  51  86 VRB3      30.15S
YANKTON        CLEAR     59  56  89 CALM      30.16S
$$

ABBREVIATIONS USED IN REMARKS
   TC - TEMPERATURE IN CELSIUS
  WCI - WIND CHILL INDEX
   HX - HEAT INDEX
  VSB - VISIBILITY





USA.gov is the U.S. government's official web portal to all federal, state and local government web resources and services.